Flag for U.S.A. Weather past 2 weeks in Centennial, Colorado, U.S.A.

Now
46 °F

Passing clouds.


Feels Like: 42 °F
Forecast: 45 / 75 °F
Wind: 8 mph from Southwest

Location: Centennial Airport

Current Time: Oct 20, 2014 at 4:39:56 AM

Latest Report: Oct 20, 2014 at 3:53 AM


Visibility: 10 mi

Pressure: 30.05 "Hg

Humidity: 68%

Dew point: 36 °F

Location of CentennialLocation

Historic Weather in Centennial — Graph

°F

Centennial temperature yesterday

Maximum temperature yesterday: 71 °F (at 2:53 PM)
Minimum temperature yesterday: 44 °F (at 12:53 AM)
Average temperature yesterday: 56 °F

Past Weeks' High & Low Weather Summary

 TemperatureHumidityPressure
High80 °F (Oct 15, 3:53 PM)97% (Oct 10, 2:53 AM)30.24 "Hg (Oct 10, 2:53 AM)
Low36 °F (Oct 13, 6:53 AM)11% (Oct 15, 3:53 PM)29.60 "Hg (Oct 12, 5:53 AM)
Average54 °F52%29.99 "Hg
* Reported Oct 5 2:53 AM — Oct 20 2:53 AM, Centennial, Weather by CustomWeather, © 2014

Note: Actual official high and low records may vary slightly from our data, if they occured in-between our weather recording intervals... More about our weather records

Advertising

Centennial weather history for previous 24 hours

 ConditionsComfort  
Time TempWeatherWind HumidityBarometerVisibility
2:53 AM
Oct 20
48 °FPassing clouds.8 mph63%30.04 "Hg10 mi
1:53 AM51 °FPassing clouds.7 mph56%30.04 "Hg10 mi
12:53 AM52 °FPassing clouds.10 mph50%30.05 "Hg10 mi
11:53 PM
Oct 19
49 °FPassing clouds.No wind57%30.07 "Hg10 mi
10:53 PM50 °FPassing clouds.7 mph57%30.08 "Hg10 mi
8:53 PM53 °FPassing clouds.7 mph51%30.08 "Hg10 mi
7:53 PM55 °FPassing clouds.8 mph45%30.09 "Hg10 mi
6:53 PM58 °FPassing clouds.5 mph39%30.07 "Hg10 mi
5:53 PM67 °FScattered clouds.7 mph26%30.02 "Hg10 mi
4:53 PM70 °FScattered clouds.5 mph23%29.99 "Hg10 mi
3:53 PM71 °FScattered clouds.6 mph22%29.98 "Hg10 mi
2:53 PM71 °FScattered clouds.5 mph22%29.99 "Hg10 mi
1:53 PM70 °FPassing clouds.3 mph23%30.01 "Hg10 mi
12:53 PM69 °FPassing clouds.5 mph24%30.03 "Hg10 mi
11:53 AM68 °FScattered clouds.5 mph24%30.06 "Hg10 mi
10:53 AM64 °FScattered clouds.6 mph34%30.06 "Hg10 mi
9:53 AM59 °FPartly sunny.8 mph42%30.07 "Hg10 mi
8:53 AM54 °FPartly sunny.6 mph59%30.09 "Hg10 mi
7:53 AM46 °FPassing clouds.No wind68%30.06 "Hg10 mi
6:53 AM44 °FPartly cloudy.No wind68%30.05 "Hg10 mi
5:53 AM45 °FPassing clouds.3 mph65%30.01 "Hg10 mi
4:53 AM45 °FPassing clouds.No wind68%30.00 "Hg10 mi
Weather by CustomWeather, © 2014

See weather overviewHow to use our weather pages